星链-5310 (STARLINK-5310 )

导读

STARLINK-5310是美国太空探索技术公司(SpaceX)星链(Starlink)卫星互联网项目中的卫星,于2023年1月19日发射入轨,隶属于星链第二代卫星星座。星链项目旨在构建全球卫星互联网星座,为全球偏远地区、海洋等地面网络覆盖盲区提供高速互联网接入服务,该卫星是星链大规模组网进程中的组成单元。

Basic Information
目录编号:
55272
目录名称:
STARLINK-5310
国际标识:
2023-010D
轨道中心:
EARTH
卫星名称:
星链-5310
卫星全名:
星链-5310 (STARLINK-5310 )
卫星状态:
在轨 (已飞行1324 天)
发射日期:
2023-01-19 UTC
国别 :
美国 (US)
星等 :
--
Orbit Information
数据来源 国际轨道数据
星历时间: 2026-09-04T12:36:07+0800
18小时前
查看轨道信息
半长轴: 6950.196km
偏心率: 0.000318
轨道倾角: 70.000°
近地点辐角 267.573°
升交点赤经 314.401°
平近点角 92.506°
近地点: 569.848km
远地点: 574.27km
周期: 96.107分钟
每日圈数: 14.983293
Detailed Information
固有亮度:
5
最大亮度:
2.5
卫星平台:
Starlink v1.5
覆盖范围:
全球
运营商:
太空探索技术公司
运营商所在国:
美国
制造商(研发单位):
太空探索技术公司
制造商所在国:
美国
使用方式:
暂无
Satellite Introduction
星链(Starlink)计划是由太空探索技术公司(SpaceX)提出的一个巨型低轨卫星互联网星座项目,计划在2019年至2024年间在太空搭建由约1.2万颗卫星组成的“星链”网络,其中1584颗将部署在地球上空550千米处的近地轨道,并从2020年开始工作。该卫星仍在工作。
2D Orbit Map
3D Orbit Map
Orbit Altitude Analysis Chart
Orbit Inclination Analysis Chart
Orbit Comprehensive Analysis Chart
View Comprehensive Chart
Conjunction Data List
Event ID Objects TCA Miss Dist (km) Collision Risk Probability Collision Risk Index (CRI) Action
CDM_260906-193103-159805-527222
SKYMED 1 (31598)
2026-09-06T
19:31:44+0000
0.617 km
远距离
1.174118E-4 高风险 0.76
CDM_260903-215203-224505-527221
2026-09-03T
21:52:44+0000
0.995 km
远距离
2.751968E-5 中风险 0.64
CDM_260831-095405-527206-325925
2026-08-31T
09:54:47+0000
1.784 km
极远距离
3.949789E-6 低风险 0.47